GOES 14 (35491 NORAD) Tracking and Keplerian Element Data

This shows tracking and keplerian element data for the satellite.

Feedback or suggestion? Click here.




ElementValue
Catalog35491
NameGOES 14
Epoch Orbit479
Epoch Day354.19280914
Epoch Year2025
RAAN85.3313
Inclination1.222
Eccentricity5.11E-05
Argument of Perigee182.2865
Mean Anonmoly136.3657
Mean Motion1.0009688
Decay Rate2E-07
L11 35491U 09033A 25354.19280914 .00000020 00000+0 00000+0 0 9990
L22 35491 1.2220 85.3313 0000511 182.2865 136.3657 1.00096880 4796



Live tracking and technical data element details for GOES 14 (NORAD 35491). GOES 14 can be tracked NOW for your location showing map with azimuth and elevation plus other details from your city location.







IsCatalogInMostPopularTable: catalog: 35491, numindb: 420
Update: records affected: 1



GetName: 35491 GOES 14

Hit Count: updated at: Sat, 07 Mar 2026 03:34:39 GMT